Weather observations for the past three days for
Indianapolis International Airport
Metric (Imperial)
Date Time (edt) Wind (kph) Vis. (km) Weather Sky Cond. Temperature (ºC) Relative Humidity Wind Chill (°C) Heat Index (°C) Pressure Precipitation (cm)
Air Dwpt 6 hour altimeter (cm) sea level (mb) 1 hr 3 hr 6 hr
Max. Min.
21 13:54 W 15 16.09 Mostly Cloudy BKN055 32.8 18.9 33.3 24.4 44% 34 76.73 1022.3
21 12:54 SW 15 16.09 Mostly Cloudy BKN060 32.2 19.4 47% 34 76.78 1022.8
21 11:54 SW 13 16.09 Mostly Cloudy BKN050 32.2 18.9 45% 34 76.84 1023.4
21 10:54 W 13 16.09 A Few Clouds FEW055 31.1 18.3 46% 32 76.84 1023.4
21 09:54 W 13 16.09 A Few Clouds FEW055 FEW200 29.4 18.9 53% 31 76.86 1023.8
21 08:54 W 7 16.09 Partly Cloudy SCT055 26.1 19.4 67% 27 76.86 1024.0
21 07:54 SW 6 16.09 Mostly Cloudy SCT020 BKN230 24.4 20.6 25 21.7 79% 25 76.86 1023.9
21 06:54 SW 6 16.09 Mostly Cloudy SCT210 BKN250 22.2 19.4 84% 76.84 1023.6
21 05:54 SW 7 16.09 Mostly Cloudy FEW220 BKN250 22.2 18.9 82% 76.81 1023.2
21 04:54 W 13 16.09 A Few Clouds FEW180 FEW230 24.4 19.4 74% 25 76.78 1022.8
21 03:54 W 7 16.09 Fair CLR 23.9 19.4 76% 24 76.78 1023.0
21 02:54 W 9 16.09 Fair CLR 22.8 20 84% 76.81 1023.1
21 01:54 SW 7 16.09 Fair CLR 24.4 19.4 30.6 24.4 74% 25 76.81 1023.4
21 00:54 SW 6 16.09 A Few Clouds FEW240 26.1 19.4 67% 27 76.84 1023.5
20 23:54 SW 7 16.09 A Few Clouds FEW210 25.6 19.4 69% 27 76.84 1023.6
20 22:54 S 7 16.09 Fair CLR 26.7 19.4 64% 28 76.84 1023.6
20 21:54 SW 11 16.09 A Few Clouds FEW060 27.2 18.9 61% 28 76.81 1023.3
20 20:54 SW 15 16.09 A Few Clouds FEW060 FEW250 28.9 18.9 55% 30 76.81 1023.1
20 19:54 SW 15 16.09 A Few Clouds FEW060 FEW250 30.6 18.9 33.3 30.6 50% 32 76.78 1022.9
20 18:54 S 15 16.09 A Few Clouds FEW060 FEW250 31.7 18.9 47% 33 76.81 1023.1
20 17:54 S 13 16.09 Partly Cloudy SCT060 SCT250 32.2 18.3 44% 33 76.81 1023.3
20 16:54 Calm 16.09 Partly Cloudy SCT060 SCT250 33.3 18.3 41% 34 76.84 1023.6
20 15:54 Vrbl 6 16.09 Partly Cloudy FEW055 SCT070 SCT250 31.7 18.9 47% 33 76.89 1024.4
20 14:54 SW 7 16.09 Partly Cloudy FEW055 SCT070 SCT250 31.7 18.3 45% 33 76.91 1024.7
20 13:54 Calm 16.09 Mostly Cloudy SCT048 BKN060 BKN250 30.6 18.3 32.2 23.9 48% 32 76.96 1025.3
20 12:54 NW 11 16.09 Mostly Cloudy SCT039 BKN048 BKN060 31.1 20 52% 33 76.99 1025.5
20 11:54 Vrbl 9 16.09 Mostly Cloudy SCT039 BKN048 BKN060 BKN250 30.6 20.6 55% 33 77.01 1026.0
20 10:54 W 13 16.09 Partly Cloudy FEW055 SCT220 29.4 20.6 59% 32 77.01 1026.0
20 09:54 W 17 16.09 Mostly Cloudy BKN210 BKN240 28.3 20.6 63% 30 77.01 1025.9
20 08:54 W 13 16.09 Mostly Cloudy BKN210 BKN240 26.7 20.6 69% 28 77.01 1025.9
20 07:54 SW 7 16.09 Mostly Cloudy FEW180 BKN240 23.9 20.6 23.9 21.7 82% 24 76.99 1025.5
20 06:54 SW 9 16.09 Mostly Cloudy FEW180 BKN210 BKN250 22.2 20 87% 76.96 1025.2
20 05:54 SW 9 16.09 Mostly Cloudy FEW180 BKN220 22.8 20 84% 76.94 1024.8
20 04:54 SW 11 16.09 Mostly Cloudy SCT160 BKN210 23.9 20.6 82% 24 76.91 1024.6
20 03:54 SW 9 16.09 Partly Cloudy SCT210 22.8 20.6 87% 76.89 1024.3
20 02:54 SW 9 16.09 A Few Clouds FEW250 22.8 20.6 87% 76.86 1024.0
20 01:54 SW 9 16.09 Fair CLR 23.9 20.6 30 23.9 82% 24 76.86 1024.0
20 00:54 S 7 16.09 Partly Cloudy SCT250 25 20.6 77% 26 76.86 1024.0
19 23:54 SW 7 16.09 A Few Clouds FEW250 25 20.6 77% 26 76.86 1024.0
19 22:54 SW 11 16.09 A Few Clouds FEW200 26.1 21.1 74% 28 76.86 1023.8
19 21:54 S 11 16.09 Partly Cloudy FEW047 SCT200 27.8 21.7 69% 30 76.81 1023.2
19 20:54 S 13 16.09 Mostly Cloudy FEW047 BKN200 28.3 21.7 67% 31 76.78 1022.8
19 19:54 SW 17 16.09 Mostly Cloudy FEW047 BKN200 30 21.1 32.2 30 59% 33 76.73 1022.4
19 18:54 SW 13 16.09 Mostly Cloudy FEW047 BKN200 31.1 21.1 55% 34 76.73 1022.3
19 17:54 SW 11 16.09 Mostly Cloudy SCT043 BKN160 BKN200 31.7 20.6 52% 34 76.73 1022.3
19 16:54 SW 11 16.09 Mostly Cloudy SCT046 BKN160 BKN220 32.2 21.7 54% 36 76.76 1022.4
19 15:54 Vrbl 11 16.09 Mostly Cloudy SCT046 BKN080 BKN220 31.7 21.1 53% 35 76.78 1022.7
19 14:54 S 11 16.09 Mostly Cloudy SCT040 BKN080 BKN220 31.1 22.2 59% 35 76.78 1023.0
19 13:54 W 9 16.09 Mostly Cloudy SCT040TCU BKN085 BKN210 31.7 21.7 31.7 25.6 55% 35 76.84 1023.4
19 12:54 SW 7 16.09 Mostly Cloudy FEW035 SCT044TCU BKN065 BKN210 30 21.1 59% 33 76.84 1023.6
19 11:54 S 13 16.09 Mostly Cloudy FEW038 SCT065 BKN250 30.6 22.2 61% 34 76.86 1023.8
19 10:54 Calm 16.09 Mostly Cloudy FEW070 BKN210 BKN300 29.4 21.1 61% 32 76.84 1023.6
19 09:54 Calm 16.09 Mostly Cloudy FEW070 SCT090 BKN210 28.3 21.7 67% 31 76.86 1024.0
19 08:54 E 7 16.09 Mostly Cloudy SCT070 BKN090 BKN200 26.1 22.2 79% 28 76.81 1023.3
19 07:54 Calm 16.09 Overcast BKN075 BKN095 OVC190 25.6 22.8 26.7 23.9 85% 27 76.78 1022.9
19 06:54 Calm 16.09 Overcast FEW040 FEW065 BKN140 OVC210 24.4 22.2 88% 25 76.73 1022.1
19 05:54 N 6 16.09 Overcast FEW040 SCT070 OVC160 24.4 22.2 88% 25 76.66 1021.3
19 04:54 N 7 16.09 Overcast SCT160 OVC210 24.4 22.2 88% 25 76.63 1020.8
19 03:54 Calm 16.09 Overcast FEW040 SCT070 BKN150 OVC210 25.6 22.2 82% 27 76.61 1020.5
19 02:54 Calm 16.09 Overcast SCT042 SCT150 OVC190 25.6 22.2 82% 27 76.61 1020.5
19 01:54 E 6 16.09 Overcast OVC180 26.7 22.2 27.8 25.6 76% 29 76.58 1020.3
19 00:54 Calm 16.09 Overcast BKN160 OVC210 26.1 21.7 77% 28 76.61 1020.5
18 23:54 S 7 16.09 Overcast OVC180 26.1 21.7 77% 28 76.58 1020.3
18 22:54 SE 6 16.09 Overcast OVC210 26.7 21.7 74% 29 76.53 1019.7
18 21:54 S 6 16.09 Overcast FEW180 OVC210 26.7 21.1 71% 28 76.5 1019.2
18 20:54 S 11 16.09 Overcast FEW180 OVC210 26.7 21.1 71% 28 76.48 1018.8
18 19:54 S 15 16.09 Mostly Cloudy FEW080 SCT180 BKN240 27.8 21.1 29.4 26.7 67% 30 76.48 1018.8
18 18:54 S 15 16.09 Mostly Cloudy FEW150 BKN250 28.9 21.1 63% 31 76.48 1018.8
18 17:54 S 15 16.09 Mostly Cloudy SCT150 BKN200 28.9 20.6 61% 31 76.5 1019.1
18 16:54 S 15 16.09 Overcast FEW110 BKN150 OVC200 28.3 21.7 67% 31 76.53 1019.5
18 15:54 S 20 16.09 Overcast FEW110 BKN150 OVC180 27.2 22.2 74% 30 76.56 1019.9
18 14:54 S 20 16.09 Light Rain BKN110 OVC140 27.2 22.2 74% 30 76.56 1020.1
Date Time (edt) Wind (kph) Vis. (km) Weather Sky Cond. Air Dwpt Max. Min. Relative Humidity Wind Chill (°C) Heat Index (°C) altimeter (cm) sea level (mb) 1 hr 3 hr 6 hr
6 hour
Temperature (ºC) Pressure Precipitation (cm)